TOURFACTS.DK  
Stats and Facts from Tour de France.

Tour de France 2019 starts in 324 days
  Riders   Stages   Teams   Summits   Yearly  


 
Search by year

After 2018 - Stage 21:
 15000 starters.
  5165 different riders.
  638 teams.
  2253 stages.
  456 restdays.
  442940.60 km.
  5684 abandonnees.


Top 3
GC
Geraint Thomas83:17:13
Tom Dumoulin83:19:04
Christopher Froome83:19:37
Climb
Julian Alaphilippe170 pt.
Warren Barguil91 pt.
Rafal Majka76 pt.
Sprint
Peter Sagan477 pt.
Alexander Kristoff246 pt.
Arnaud Démare203 pt.
Youth
Pierre-Roger Latou..83:39:26
Egan Bernal83:45:05
Guillaume Martin84:01:31
Facts from Tour de France 1975
  |   Stages.  |   Stage winners.  |   Days in yellow  |   Average speed.  |   Route.  |   Teams.  |   All riders.  |   Rookies.  |  

  |   Withdrawls.  |   GC.  |   Polka  |   Green  |   White  |   Summits. (In tour)  |   Miscellaneous.  |  

Stage 6 on 02 - 07 - 1975
         Owning:    Eddy Merckx    
Pick a stage:  Pro 1a 1b 2 3 4 5 6 7 8 9a 9b 10 11 12 13 14 15 16 17 18 19 20 21 22
  Merlin-PlageMerlin-Plage | Dist: 16.00 km.

Average speed for all riders in stage:  44,711 km./hr.
    Place:Name:Team:Time:Km/h:
1
BELEddy MerckxITAMolteni00:19:33  +  00:00:00=49,105 
2
FRAYves HézardFRAGan-Mercier-Hutchinson00:19:40  +  00:00:07=48,814 
3
NORKnut KnudsenITAJollyceramica00:20:03  +  00:00:30=47,880 
44 ITAFrancesco MoserITAFilotex00:20:06  +  00:00:33=47,761 
55 FRAJean-Pierre DanguillaumeFRAPeugeot-BP-Michelin00:20:18  +  00:00:45=47,291 
66 FRABernard ThevenetFRAPeugeot-BP-Michelin00:20:25  +  00:00:52=47,020 
77 ESPLuis OcañaESPSuper Ser00:20:26  +  00:00:53=46,982 
88 NEDHennie KuiperNLDFrisol-G.B.C.00:20:29  +  00:00:56=46,867 
99 BELMichel PollentierBELCarpenter Confortluxe-Flandria00:20:30  +  00:00:57=46,829 
1010 NEDGerrie KnetemannFRAGan-Mercier-Hutchinson00:20:31  +  00:00:58=46,791 
1111 DENOle RitterITAFilotex00:20:32  +  00:00:59=46,753 
1212 ENGBarry HobanFRAGan-Mercier-Hutchinson00:20:38  +  00:01:05=46,527 
1313 NEDCees PriemNLDFrisol-G.B.C.00:20:40  +  00:01:07=46,452 
1414 FRARaymond PoulidorFRAGan-Mercier-Hutchinson00:20:40  +  00:01:07=46,452 
1515 NEDGerben KarstensFRAGitane-Campagnolo00:20:43  +  00:01:10=46,340 
1616 FRAHubert MathisBELMiko-De Gribaldy00:20:43  +  00:01:10=46,340 
1717 PORJoaquim AgostinhoPRTSporting-Sottomayor00:20:46  +  00:01:13=46,228 
1818 NEDFedor Iwan Den HertogNLDFrisol-G.B.C.00:20:47  +  00:01:14=46,191 
1919 ITAFelice GimondiITABianchi-Campagnolo00:20:47  +  00:01:14=46,191 
2020 BELEduard JanssensITAMolteni00:20:48  +  00:01:15=46,154 
2121 ITASimone FraccaroITABianchi-Campagnolo00:20:48  +  00:01:15=46,154 
2222 NEDGerard KamperNLDFrisol-G.B.C.00:20:48  +  00:01:15=46,154 
2323 ESPJosé-Luis ViejoESPSuper Ser00:20:49  +  00:01:16=46,117 
2424 BELHerman Van SpringelBELCarpenter Confortluxe-Flandria00:20:49  +  00:01:16=46,117 
2525 BELLucien Van ImpeFRAGitane-Campagnolo00:20:49  +  00:01:16=46,117 
2626 BELTony HoubrechtsITABianchi-Campagnolo00:20:51  +  00:01:18=46,043 
2727 FRARégis OvionFRAPeugeot-BP-Michelin00:20:53  +  00:01:20=45,970 
2828 BELKarel RottiersITAMolteni00:20:57  +  00:01:24=45,823 
2929 FRAJean-Claude MisacFRAGan-Mercier-Hutchinson00:20:58  +  00:01:25=45,787 
3030 BELRonald De WitteBELCarpenter Confortluxe-Flandria00:20:59  +  00:01:26=45,751 
3131 BELRoger RosiersESPSuper Ser00:20:59  +  00:01:26=45,751 
3232 BELMarc DemeyerBELCarpenter Confortluxe-Flandria00:21:00  +  00:01:27=45,714 
3333 NEDJoop ZoetemelkFRAGan-Mercier-Hutchinson00:21:04  +  00:01:31=45,570 
3434 BELWilfried WesemaelBELMiko-De Gribaldy00:21:04  +  00:01:31=45,570 
3535 PORFirmino BernardinoPRTSporting-Sottomayor00:21:04  +  00:01:31=45,570 
3636 BELJoseph SpruytITAMolteni00:21:05  +  00:01:32=45,534 
3737 ITAGiovanni BattaglinITAJollyceramica00:21:06  +  00:01:33=45,498 
3838 FRAJean-Pierre GenetFRAGan-Mercier-Hutchinson00:21:07  +  00:01:34=45,462 
3939 FRAFrancis CampanerPRTSporting-Sottomayor00:21:07  +  00:01:34=45,462 
4040 ITAMauro SimonettiITAFilotex00:21:08  +  00:01:35=45,426 
4141 FRARaymond DelisleFRAPeugeot-BP-Michelin00:21:09  +  00:01:36=45,390 
4242 ESPFrancisco GaldosESPKas-Kaskol00:21:11  +  00:01:38=45,319 
4343 SUIJosef FuchsITAFilotex00:21:12  +  00:01:39=45,283 
4444 ESPJosé PesarrodonaESPKas-Kaskol00:21:12  +  00:01:39=45,283 
4545 COLMartìn RodríguezITABianchi-Campagnolo00:21:14  +  00:01:41=45,212 
4646 NEDGerard VianenFRAGan-Mercier-Hutchinson00:21:17  +  00:01:44=45,106 
4747 FRACharly RouxelFRAPeugeot-BP-Michelin00:21:18  +  00:01:45=45,070 
4848 FRAPatrick PerretBELMiko-De Gribaldy00:21:18  +  00:01:45=45,070 
4949 ESPPedro TorresESPSuper Ser00:21:19  +  00:01:46=45,035 
5050 BELFrans MintjensITAMolteni00:21:19  +  00:01:46=45,035 
5151 ESPCarlos MeleroESPKas-Kaskol00:21:20  +  00:01:47=45,000 
5252 ESPAntonio MenendezESPKas-Kaskol00:21:22  +  00:01:49=44,930 
5353 FRAJoël MillardFRAJobo-Wolber00:21:23  +  00:01:50=44,895 
5454 ITAGiovanni CavalcantiITABianchi-Campagnolo00:21:24  +  00:01:51=44,860 
5555 ESPMariano MartinezFRAGitane-Campagnolo00:21:24  +  00:01:51=44,860 
5656 BELLudo DelcroixITAMolteni00:21:24  +  00:01:51=44,860 
5757 ESPSantiago LazcanoESPSuper Ser00:21:25  +  00:01:52=44,825 
5858 BELWilfried DavidBELCarpenter Confortluxe-Flandria00:21:25  +  00:01:52=44,825 
5959 MARAntoine GutierrezBELMiko-De Gribaldy00:21:25  +  00:01:52=44,825 
6060 ITARoberto SorliniITAFilotex00:21:26  +  00:01:53=44,790 
6161 ESPVicente LopezESPKas-Kaskol00:21:26  +  00:01:53=44,790 
6262 BELMarc LievensITAMolteni00:21:26  +  00:01:53=44,790 
6363 FRAGuy SibilleFRAPeugeot-BP-Michelin00:21:27  +  00:01:54=44,755 
6464 ITAGiacomo BazzanITAJollyceramica00:21:27  +  00:01:54=44,755 
6565 BELRik Van LindenITABianchi-Campagnolo00:21:28  +  00:01:55=44,720 
6666 BELWalter GodefrootBELCarpenter Confortluxe-Flandria00:21:29  +  00:01:56=44,686 
6767 FRAGeorges TalbourdetFRAGan-Mercier-Hutchinson00:21:30  +  00:01:57=44,651 
6868 BELRoger LoyschBELMiko-De Gribaldy00:21:32  +  00:01:59=44,582 
6969 FRAPatrick BeonFRAPeugeot-BP-Michelin00:21:34  +  00:02:01=44,513 
7070 FRAAlain SantyFRAGitane-Campagnolo00:21:35  +  00:02:02=44,479 
7171 ITAGiacinto SantambrogioITABianchi-Campagnolo00:21:35  +  00:02:02=44,479 
7272 ITARoberto PoggialiITAFilotex00:21:35  +  00:02:02=44,479 
7373 FRASylvain VasseurESPSuper Ser00:21:36  +  00:02:03=44,444 
7474 BELWilly TeirlinckFRAGitane-Campagnolo00:21:37  +  00:02:04=44,410 
7575 ITADonato GiulianiITAJollyceramica00:21:38  +  00:02:05=44,376 
7676 PORJosé AmaroPRTSporting-Sottomayor00:21:40  +  00:02:07=44,308 
7777 PORJoaquim CarvalhoPRTSporting-Sottomayor00:21:40  +  00:02:07=44,308 
7878 FRASerge ParsaniITABianchi-Campagnolo00:21:41  +  00:02:08=44,274 
7979 FRAJosé CatieauFRAPeugeot-BP-Michelin00:21:41  +  00:02:08=44,274 
8080 ESPJosé CasasESPSuper Ser00:21:42  +  00:02:09=44,240 
8181 FRABernard LabourdettePRTSporting-Sottomayor00:21:44  +  00:02:11=44,172 
8282 ESPJuan ZuranoESPKas-Kaskol00:21:44  +  00:02:11=44,172 
8383 FRAGerard MoneyronBELCarpenter Confortluxe-Flandria00:21:45  +  00:02:12=44,138 
8484 FRAClaude MagniFRAJobo-Wolber00:21:45  +  00:02:12=44,138 
8585 COLAntonio MartosESPKas-Kaskol00:21:46  +  00:02:13=44,104 
8686 FRAAndré MolletPRTSporting-Sottomayor00:21:46  +  00:02:13=44,104 
8787 BELAndre DoyenBELMiko-De Gribaldy00:21:47  +  00:02:14=44,070 
8888 FRARichard PianaroFRAJobo-Wolber00:21:47  +  00:02:14=44,070 
8989 AUSDonald AllanNLDFrisol-G.B.C.00:21:48  +  00:02:15=44,037 
9090 ITAAlessio AntoniniITAJollyceramica00:21:49  +  00:02:16=44,003 
9191 FRAMichel PerinFRAGan-Mercier-Hutchinson00:21:51  +  00:02:18=43,936 
9292 BELHerman BeysensITAMolteni00:21:51  +  00:02:18=43,936 
9393 BELDaniel VerplanckeBELCarpenter Confortluxe-Flandria00:21:52  +  00:02:19=43,902 
9494 NEDTheo SmitNLDFrisol-G.B.C.00:21:52  +  00:02:19=43,902 
9595 BELJos De SchoenmaeckerITAMolteni00:21:52  +  00:02:19=43,902 
9696 ITAPierino GavazziITAJollyceramica00:21:53  +  00:02:20=43,869 
9797 FRAJacques BoulasFRAJobo-Wolber00:21:53  +  00:02:20=43,869 
9898 FRARobert MintkiewiczFRAGitane-Campagnolo00:21:54  +  00:02:21=43,836 
9999 ITARenato MarchettiITAFilotex00:21:55  +  00:02:22=43,802 
100100 PORFernando FerreiraPRTSporting-Sottomayor00:21:56  +  00:02:23=43,769 
101101 FRAFerdinand JulienPRTSporting-Sottomayor00:21:56  +  00:02:23=43,769 
102102 FRAAndré CorbeauFRAJobo-Wolber00:21:57  +  00:02:24=43,736 
103103 ITASigfrido FontanelliITAFilotex00:21:57  +  00:02:24=43,736 
104104 FRAJoel HauvieuxFRAJobo-Wolber00:21:58  +  00:02:25=43,703 
105105 BELJoseph HuysmansITAMolteni00:21:59  +  00:02:26=43,669 
106106 FRARaymond MartinFRAGitane-Campagnolo00:21:59  +  00:02:26=43,669 
107107 ESPLuis BalagueESPSuper Ser00:22:00  +  00:02:27=43,636 
108108 ITALuigi CastellettiITABianchi-Campagnolo00:22:00  +  00:02:27=43,636 
109109 ITAFabrizio FabbriITABianchi-Campagnolo00:22:00  +  00:02:27=43,636 
110110 FRAGuy LeleuFRAGitane-Campagnolo00:22:00  +  00:02:27=43,636 
111111 NEDBen KokenNLDFrisol-G.B.C.00:22:02  +  00:02:29=43,570 
112112 BELJosé De CauwerNLDFrisol-G.B.C.00:22:02  +  00:02:29=43,570 
113113 BELRené DillenFRAGitane-Campagnolo00:22:02  +  00:02:29=43,570 
114114 ESPJulian AndianoESPSuper Ser00:22:03  +  00:02:30=43,537 
115115 ITAArnaldo CaverzasiITAFilotex00:22:04  +  00:02:31=43,505 
116116 ESPGonzalo AjaESPKas-Kaskol00:22:05  +  00:02:32=43,472 
117117 FRARoger LegeayFRAJobo-Wolber00:22:05  +  00:02:32=43,472 
118118 ESPAndré RomeroFRAJobo-Wolber00:22:06  +  00:02:33=43,439 
119119 ITAGiovanni Dalla BonaITAJollyceramica00:22:07  +  00:02:34=43,406 
120120 ESPJosé GrandeESPKas-Kaskol00:22:07  +  00:02:34=43,406 
121121 FRAMaurice Le GuillouxFRAGitane-Campagnolo00:22:11  +  00:02:38=43,276 
122122 BELEddy PeelmanESPSuper Ser00:22:12  +  00:02:39=43,243 
123123 FRAJacques EsclassanFRAPeugeot-BP-Michelin00:22:13  +  00:02:40=43,211 
124124 FRABernard BourreauFRAPeugeot-BP-Michelin00:22:14  +  00:02:41=43,178 
125125 BELFrans Van VlierbergheBELMiko-De Gribaldy00:22:14  +  00:02:41=43,178 
126126 NEDHenk PrinsenNLDFrisol-G.B.C.00:22:19  +  00:02:46=43,017 
127127 FRAAlain CiganaFRAJobo-Wolber00:22:20  +  00:02:47=42,985 
128128 FRARegis DelepineBELCarpenter Confortluxe-Flandria00:22:20  +  00:02:47=42,985 
129129 ITAPietro DallaiITAFilotex00:22:20  +  00:02:47=42,985 
130130 ITASandro QuintarelliITAJollyceramica00:22:21  +  00:02:48=42,953 
131131 BELAlbert Van VlierbergheBELMiko-De Gribaldy00:22:40  +  00:03:07=42,353 
132132 FRAMichel LaurentBELMiko-De Gribaldy00:22:47  +  00:03:14=42,136 
133133 ITABruno VicinoITAJollyceramica00:22:49  +  00:03:16=42,075 
134134 BELLucien De BrauwereBELMiko-De Gribaldy00:22:52  +  00:03:19=41,983 

Todays birthdays.

1883  Albert Niepçeron
1911  Camille Leroy
1914  Gaston Grimbert
1940  José Momeñe
1956  Régis Clère
1957  Alfonso Dal Pian
1960  Samuel Cabrera
1967  Christophe Capelle
1976  Dimitiri Fofonov
1980  Giampaolo Caruso
1983  Jean-Marc Marino




Visits: